"read_dt","SO2 (ppb)","flags","PMT voltage (V)","lamp voltage (V)","lamp intensity (Hz)","internal temp (C)","react chamber temp (C)","sample flow (l/min)","pres (mmHg)","SO2 bkg (ppb)","SO2 coefficient"
2017-04-15 00:00:00,1721E-3,5C000400,-0724,0837,12133,031.4,045.5,0.214,750.3,01.17,0.508
2017-04-15 00:01:00,1701E-3,5C000400,-0724,0837,11954,031.4,045.5,0.214,750.3,01.17,0.508
2017-04-15 00:02:00,1677E-3,5C000400,-0724,0838,12024,031.4,045.5,0.214,750.3,01.17,0.508
2017-04-15 00:03:00,1608E-3,5C000400,-0724,0838,12099,031.4,045.5,0.214,750.2,01.17,0.508
2017-04-15 00:04:00,1676E-3,5C000400,-0724,0837,11954,031.5,045.5,0.214,750.2,01.17,0.508
2017-04-15 00:05:00,1670E-3,5C000400,-0724,0837,11979,031.4,045.5,0.214,750.2,01.17,0.508
2017-04-15 00:06:00,1735E-3,5C000400,-0724,0838,12114,031.5,045.5,0.214,750.2,01.17,0.508
2017-04-15 00:07:00,1627E-3,5C000400,-0724,0838,12056,031.5,045.5,0.214,750.2,01.17,0.508
2017-04-15 00:08:00,1672E-3,5C000400,-0724,0838,12146,031.5,045.5,0.214,750.2,01.17,0.508
2017-04-15 00:09:00,1662E-3,5C000400,-0724,0837,11903,031.5,045.6,0.214,750.2,01.17,0.508
2017-04-15 00:10:00,1684E-3,5C000400,-0724,0838,11918,031.5,045.6,0.214,750.2,01.17,0.508
2017-04-15 00:11:00,1805E-3,5C000400,-0724,0837,12063,031.5,045.6,0.214,750.2,01.17,0.508
2017-04-15 00:12:00,1678E-3,5C000400,-0724,0838,12142,031.5,045.6,0.214,750.2,01.17,0.508
2017-04-15 00:13:00,1650E-3,5C000400,-0724,0838,12078,031.5,045.5,0.214,750.2,01.17,0.508
2017-04-15 00:14:00,1672E-3,5C000400,-0724,0838,12087,031.5,045.6,0.214,750.2,01.17,0.508
2017-04-15 00:15:00,1645E-3,5C000400,-0724,0837,12173,031.5,045.6,0.214,750.2,01.17,0.508
2017-04-15 00:16:00,1520E-3,5C000400,-0724,0839,11973,031.5,045.6,0.214,750.1,01.17,0.508
2017-04-15 00:17:00,1759E-3,5C000400,-0724,0838,12111,031.5,045.6,0.214,750.2,01.17,0.508
2017-04-15 00:18:00,1720E-3,5C000400,-0724,0838,11987,031.5,045.5,0.214,750.2,01.17,0.508
2017-04-15 00:19:00,1741E-3,5C000400,-0724,0838,12013,031.5,045.5,0.214,750.2,01.17,0.508
2017-04-15 00:20:00,1637E-3,5C000400,-0724,0838,12137,031.5,045.5,0.214,750.1,01.17,0.508
2017-04-15 00:21:00,1727E-3,5C000400,-0724,0838,11889,031.5,045.6,0.214,750.2,01.17,0.508
2017-04-15 00:22:00,1646E-3,5C000400,-0724,0838,12147,031.5,045.6,0.214,750.2,01.17,0.508
2017-04-15 00:23:00,1673E-3,5C000400,-0724,0838,12034,031.6,045.5,0.214,750.2,01.17,0.508
2017-04-15 00:24:00,1696E-3,5C000400,-0724,0838,12161,031.5,045.6,0.214,750.2,01.17,0.508
2017-04-15 00:25:00,1720E-3,5C000400,-0724,0838,12219,031.6,045.6,0.214,750.2,01.17,0.508
2017-04-15 00:26:00,1679E-3,5C000400,-0724,0837,12132,031.6,045.5,0.214,750.2,01.17,0.508
2017-04-15 00:27:00,1727E-3,5C000400,-0724,0838,11981,031.6,045.6,0.214,750.2,01.17,0.508
2017-04-15 00:28:00,1764E-3,5C000400,-0724,0837,11950,031.6,045.6,0.213,750.2,01.17,0.508
2017-04-15 00:29:00,1665E-3,5C000400,-0724,0838,12020,031.6,045.6,0.214,750.2,01.17,0.508
2017-04-15 00:30:00,1512E-3,5C000400,-0724,0838,12104,031.6,045.6,0.214,750.2,01.17,0.508
2017-04-15 00:31:00,1750E-3,5C000400,-0724,0838,12051,031.6,045.6,0.214,750.2,01.17,0.508
2017-04-15 00:32:00,1717E-3,5C000400,-0724,0838,12056,031.6,045.6,0.214,750.2,01.17,0.508
2017-04-15 00:33:00,1650E-3,5C000400,-0724,0839,12010,031.6,045.6,0.214,750.2,01.17,0.508
2017-04-15 00:34:00,1604E-3,5C000400,-0724,0838,12077,031.6,045.6,0.214,750.2,01.17,0.508
2017-04-15 00:35:00,1577E-3,5C000400,-0724,0838,12086,031.6,045.6,0.213,750.2,01.17,0.508
2017-04-15 00:36:00,1696E-3,5C000400,-0724,0837,11876,031.6,045.6,0.214,750.2,01.17,0.508
2017-04-15 00:37:00,1676E-3,5C000400,-0724,0838,12136,031.6,045.6,0.214,750.2,01.17,0.508
2017-04-15 00:38:00,1654E-3,5C000400,-0724,0838,12101,031.6,045.6,0.214,750.2,01.17,0.508
2017-04-15 00:39:00,1769E-3,5C000400,-0724,0838,11952,031.7,045.5,0.214,750.2,01.17,0.508
2017-04-15 00:40:00,1716E-3,5C000400,-0724,0838,12168,031.6,045.5,0.214,750.2,01.17,0.508
2017-04-15 00:41:00,1669E-3,5C000400,-0724,0838,12037,031.7,045.6,0.214,750.2,01.17,0.508
2017-04-15 00:42:00,1648E-3,5C000400,-0724,0838,12101,031.7,045.6,0.214,750.1,01.17,0.508
2017-04-15 00:43:00,1742E-3,5C000400,-0724,0837,12130,031.7,045.6,0.214,750.1,01.17,0.508
2017-04-15 00:44:00,1751E-3,5C000400,-0724,0838,12182,031.7,045.6,0.214,750.1,01.17,0.508
2017-04-15 00:45:00,1684E-3,5C000400,-0724,0838,11916,031.7,045.6,0.214,750.1,01.17,0.508
2017-04-15 00:46:00,1686E-3,5C000400,-0724,0839,12086,031.7,045.6,0.214,750.2,01.17,0.508
2017-04-15 00:47:00,1668E-3,5C000400,-0724,0838,12110,031.7,045.6,0.214,750.2,01.17,0.508
2017-04-15 00:48:00,1637E-3,5C000400,-0724,0837,12012,031.7,045.6,0.214,750.2,01.17,0.508
2017-04-15 00:49:00,1704E-3,5C000400,-0724,0838,12122,031.7,045.6,0.213,750.2,01.17,0.508
2017-04-15 00:50:00,1706E-3,5C000400,-0724,0837,12002,031.7,045.6,0.213,750.1,01.17,0.508
2017-04-15 00:51:00,1670E-3,5C000400,-0724,0838,12054,031.7,045.6,0.213,750.1,01.17,0.508
2017-04-15 00:52:00,1632E-3,5C000400,-0724,0838,12108,031.8,045.6,0.213,750.1,01.17,0.508
2017-04-15 00:53:00,1642E-3,5C000400,-0724,0838,11936,031.8,045.6,0.213,750.2,01.17,0.508
2017-04-15 00:54:00,1688E-3,5C000400,-0724,0838,12183,031.8,045.6,0.213,750.1,01.17,0.508
2017-04-15 00:55:00,1680E-3,5C000400,-0724,0838,11986,031.8,045.6,0.214,750.1,01.17,0.508
2017-04-15 00:56:00,1665E-3,5C000400,-0724,0838,12055,031.8,045.6,0.214,750.1,01.17,0.508
2017-04-15 00:57:00,1621E-3,5C000400,-0724,0837,12043,031.8,045.6,0.214,750.1,01.17,0.508
2017-04-15 00:58:00,1731E-3,5C000400,-0724,0838,12047,031.8,045.6,0.213,750.2,01.17,0.508
2017-04-15 00:59:00,1760E-3,5C000400,-0724,0838,12049,031.8,045.6,0.213,750.2,01.17,0.508
2017-04-15 01:00:00,1578E-3,5C000400,-0724,0837,12072,031.8,045.6,0.213,750.2,01.17,0.508
2017-04-15 01:01:00,1658E-3,5C000400,-0724,0837,12059,031.8,045.6,0.213,750.1,01.17,0.508
2017-04-15 01:02:00,1513E-3,5C000400,-0724,0838,12070,031.8,045.6,0.213,750.1,01.17,0.508
2017-04-15 01:03:00,1762E-3,5C000400,-0724,0837,12166,031.9,045.6,0.213,750.1,01.17,0.508
2017-04-15 01:04:00,1676E-3,5C000400,-0724,0838,12161,031.8,045.6,0.213,750.1,01.17,0.508
2017-04-15 01:05:00,1703E-3,5C000400,-0724,0837,12013,031.9,045.6,0.213,750.1,01.17,0.508
2017-04-15 01:06:00,1713E-3,5C000400,-0724,0837,12053,031.9,045.6,0.213,750.1,01.17,0.508
2017-04-15 01:07:00,1797E-3,5C000400,-0724,0838,12095,031.9,045.6,0.213,750.1,01.17,0.508
2017-04-15 01:08:00,1679E-3,5C000400,-0724,0837,12147,031.9,045.6,0.213,750.1,01.17,0.508
2017-04-15 01:09:00,1576E-3,5C000400,-0724,0838,12110,031.9,045.6,0.213,750.1,01.17,0.508
2017-04-15 01:10:00,1759E-3,5C000400,-0724,0838,12027,031.9,045.6,0.213,750.1,01.17,0.508
2017-04-15 01:11:00,1808E-3,5C000400,-0724,0837,12127,031.9,045.6,0.213,750.1,01.17,0.508
2017-04-15 01:12:00,1529E-3,5C000400,-0724,0837,12103,031.9,045.6,0.213,750.1,01.17,0.508
2017-04-15 01:13:00,1597E-3,5C000400,-0724,0839,12120,031.9,045.6,0.213,750.1,01.17,0.508
2017-04-15 01:14:00,1588E-3,5C000400,-0724,0838,12056,031.9,045.6,0.213,750.1,01.17,0.508
2017-04-15 01:15:00,1712E-3,5C000400,-0724,0838,12183,031.9,045.6,0.213,750.1,01.17,0.508
2017-04-15 01:16:00,1520E-3,5C000400,-0724,0838,12128,031.9,045.6,0.213,750.1,01.17,0.508
2017-04-15 01:17:00,1623E-3,5C000400,-0724,0838,11960,031.9,045.6,0.213,750.1,01.17,0.508
2017-04-15 01:18:00,1694E-3,5C000400,-0724,0838,12011,031.9,045.6,0.213,750.1,01.17,0.508
2017-04-15 01:19:00,1724E-3,5C000400,-0724,0838,12099,032.0,045.6,0.213,750.1,01.17,0.508
2017-04-15 01:20:00,1675E-3,5C000400,-0724,0839,11981,032.0,045.6,0.213,750.1,01.17,0.508
2017-04-15 01:21:00,1589E-3,5C000400,-0724,0838,12114,032.0,045.6,0.213,750.1,01.17,0.508
2017-04-15 01:22:00,1700E-3,5C000400,-0724,0838,12075,032.0,045.6,0.213,750.1,01.17,0.508
2017-04-15 01:23:00,1691E-3,5C000400,-0724,0839,11922,032.0,045.6,0.213,750.1,01.17,0.508
2017-04-15 01:24:00,1574E-3,5C000400,-0724,0839,12086,032.0,045.6,0.213,750.1,01.17,0.508
2017-04-15 01:25:00,1583E-3,5C000400,-0724,0838,12087,032.0,045.6,0.212,750.1,01.17,0.508
2017-04-15 01:26:00,1838E-3,5C000400,-0724,0838,12031,032.0,045.6,0.213,750.1,01.17,0.508
2017-04-15 01:27:00,1688E-3,5C000400,-0724,0837,12137,032.0,045.6,0.213,750.1,01.17,0.508
2017-04-15 01:28:00,1619E-3,5C000400,-0724,0838,12105,032.0,045.6,0.213,750.1,01.17,0.508
2017-04-15 01:29:00,1813E-3,5C000400,-0724,0838,12160,032.1,045.6,0.213,750.1,01.17,0.508
2017-04-15 01:30:00,1604E-3,5C000400,-0724,0838,12086,032.1,045.6,0.213,750.1,01.17,0.508
2017-04-15 01:31:00,1664E-3,5C000400,-0724,0838,12033,032.1,045.6,0.213,750.1,01.17,0.508
2017-04-15 01:32:00,1734E-3,5C000400,-0724,0838,12127,032.1,045.6,0.213,750.1,01.17,0.508
2017-04-15 01:33:00,1690E-3,5C000400,-0724,0837,12084,032.1,045.6,0.213,750.1,01.17,0.508
2017-04-15 01:34:00,1735E-3,5C000400,-0724,0838,12124,032.1,045.6,0.213,750.1,01.17,0.508
2017-04-15 01:35:00,1705E-3,5C000400,-0724,0838,12196,032.1,045.6,0.213,750.1,01.17,0.508
2017-04-15 01:36:00,1767E-3,5C000400,-0724,0838,12031,032.1,045.6,0.212,750.1,01.17,0.508
2017-04-15 01:37:00,1638E-3,5C000400,-0724,0838,12058,032.1,045.6,0.212,750.1,01.17,0.508
2017-04-15 01:38:00,1736E-3,5C000400,-0724,0838,12003,032.1,045.6,0.212,750.2,01.17,0.508
2017-04-15 01:39:00,1741E-3,5C000400,-0724,0838,12155,032.1,045.6,0.212,750.2,01.17,0.508
2017-04-15 01:40:00,1750E-3,5C000400,-0724,0838,11973,032.2,045.6,0.212,750.2,01.17,0.508
2017-04-15 01:41:00,1722E-3,5C000400,-0724,0838,12007,032.1,045.6,0.212,750.2,01.17,0.508
2017-04-15 01:42:00,1579E-3,5C000400,-0724,0838,11864,032.2,045.6,0.213,750.1,01.17,0.508
2017-04-15 01:43:00,1667E-3,5C000400,-0724,0838,11961,032.2,045.6,0.213,750.1,01.17,0.508
2017-04-15 01:44:00,1694E-3,5C000400,-0724,0837,12055,032.2,045.6,0.213,750.1,01.17,0.508
2017-04-15 01:45:00,1595E-3,5C000400,-0724,0838,12130,032.2,045.6,0.212,750.1,01.17,0.508
2017-04-15 01:46:00,1770E-3,5C000400,-0724,0838,11993,032.2,045.6,0.212,750.2,01.17,0.508
2017-04-15 01:47:00,1570E-3,5C000400,-0724,0838,12059,032.2,045.6,0.212,750.1,01.17,0.508
2017-04-15 01:48:00,1692E-3,5C000400,-0724,0838,12133,032.2,045.6,0.212,750.1,01.17,0.508
2017-04-15 01:49:00,1657E-3,5C000400,-0724,0837,12098,032.2,045.6,0.213,750.2,01.17,0.508
2017-04-15 01:50:00,1633E-3,5C000400,-0724,0838,12015,032.2,045.6,0.212,750.1,01.17,0.508
2017-04-15 01:51:00,1786E-3,5C000400,-0724,0838,11930,032.2,045.6,0.212,750.1,01.17,0.508
2017-04-15 01:52:00,1597E-3,5C000400,-0724,0838,12056,032.2,045.6,0.212,750.1,01.17,0.508
2017-04-15 01:53:00,1571E-3,5C000400,-0724,0837,12132,032.3,045.6,0.212,750.1,01.17,0.508
2017-04-15 01:54:00,1691E-3,5C000400,-0724,0838,11935,032.3,045.6,0.212,750.1,01.17,0.508
2017-04-15 01:55:00,1657E-3,5C000400,-0724,0837,12098,032.3,045.6,0.212,750.1,01.17,0.508
2017-04-15 01:56:00,1653E-3,5C000400,-0724,0838,12109,032.3,045.6,0.212,750.1,01.17,0.508
2017-04-15 01:57:00,1625E-3,5C000400,-0724,0838,12056,032.3,045.6,0.212,750.1,01.17,0.508
2017-04-15 01:58:00,1624E-3,5C000400,-0724,0838,12084,032.3,045.6,0.212,750.1,01.17,0.508
2017-04-15 01:59:00,1658E-3,5C000400,-0724,0838,12058,032.3,045.6,0.212,750.1,01.17,0.508
2017-04-15 02:00:00,1566E-3,5C000400,-0724,0837,12012,032.3,045.6,0.212,750.1,01.17,0.508
2017-04-15 02:01:00,1528E-3,5C000400,-0724,0837,12187,032.3,045.6,0.212,750.1,01.17,0.508
2017-04-15 02:02:00,1638E-3,5C000400,-0724,0838,11992,032.3,045.6,0.212,750.1,01.17,0.508
2017-04-15 02:03:00,1690E-3,5C000400,-0724,0838,12090,032.3,045.6,0.212,750.1,01.17,0.508
2017-04-15 02:04:00,1603E-3,5C000400,-0724,0837,12141,032.4,045.6,0.212,750.1,01.17,0.508
2017-04-15 02:05:00,1624E-3,5C000400,-0724,0838,12044,032.4,045.6,0.212,750.1,01.17,0.508
2017-04-15 02:06:00,1679E-3,5C000400,-0724,0838,11927,032.4,045.6,0.212,750.1,01.17,0.508
2017-04-15 02:07:00,1642E-3,5C000400,-0724,0838,12170,032.4,045.6,0.212,750.1,01.17,0.508
2017-04-15 02:08:00,1809E-3,5C000400,-0724,0838,11843,032.4,045.6,0.212,750.1,01.17,0.508
2017-04-15 02:09:00,1700E-3,5C000400,-0724,0839,11969,032.4,045.6,0.212,750.1,01.17,0.508
2017-04-15 02:10:00,1750E-3,5C000400,-0724,0838,11958,032.4,045.6,0.212,750.1,01.17,0.508
2017-04-15 02:11:00,1642E-3,5C000400,-0724,0839,12136,032.4,045.6,0.212,750.1,01.17,0.508
2017-04-15 02:12:00,1701E-3,5C000400,-0724,0838,12122,032.4,045.6,0.212,750.1,01.17,0.508
2017-04-15 02:13:00,1744E-3,5C000400,-0724,0838,11980,032.4,045.6,0.212,750.1,01.17,0.508
2017-04-15 02:14:00,1646E-3,5C000400,-0724,0838,12071,032.4,045.6,0.212,750.1,01.17,0.508
2017-04-15 02:15:00,1721E-3,5C000400,-0724,0838,12017,032.5,045.6,0.212,750.1,01.17,0.508
2017-04-15 02:16:00,1719E-3,5C000400,-0724,0838,12030,032.4,045.6,0.212,750.1,01.17,0.508
2017-04-15 02:17:00,1708E-3,5C000400,-0724,0837,11926,032.4,045.6,0.212,750.1,01.17,0.508
2017-04-15 02:18:00,1617E-3,5C000400,-0724,0838,11955,032.4,045.6,0.212,750.1,01.17,0.508
2017-04-15 02:19:00,1744E-3,5C000400,-0724,0839,12175,032.5,045.6,0.212,750.1,01.17,0.508
2017-04-15 02:20:00,1597E-3,5C000400,-0724,0839,11911,032.5,045.6,0.212,750.1,01.17,0.508
2017-04-15 02:21:00,1686E-3,5C000400,-0724,0838,12013,032.5,045.6,0.212,750.1,01.17,0.508
2017-04-15 02:22:00,1566E-3,5C000400,-0724,0838,12149,032.5,045.6,0.212,750.1,01.17,0.508
2017-04-15 02:23:00,1712E-3,5C000400,-0724,0838,12010,032.5,045.6,0.212,750.1,01.17,0.508
2017-04-15 02:24:00,1673E-3,5C000400,-0724,0839,12090,032.5,045.6,0.212,750.1,01.17,0.508
2017-04-15 02:25:00,1631E-3,5C000400,-0724,0837,11837,032.5,045.6,0.212,750.2,01.17,0.508
2017-04-15 02:26:00,1653E-3,5C000400,-0724,0838,12010,032.5,045.6,0.212,750.2,01.17,0.508
2017-04-15 02:27:00,1595E-3,5C000400,-0724,0837,12080,032.5,045.6,0.212,750.1,01.17,0.508
2017-04-15 02:28:00,1595E-3,5C000400,-0724,0838,12046,032.5,045.6,0.212,750.1,01.17,0.508
2017-04-15 02:29:00,1710E-3,5C000400,-0724,0838,12139,032.5,045.6,0.212,750.1,01.17,0.508
2017-04-15 02:30:00,1694E-3,5C000400,-0724,0838,12241,032.5,045.6,0.212,750.1,01.17,0.508
2017-04-15 02:31:00,1831E-3,5C000400,-0724,0839,12082,032.5,045.6,0.212,750.1,01.17,0.508
2017-04-15 02:32:00,1611E-3,5C000400,-0724,0837,12047,032.6,045.6,0.212,750.2,01.17,0.508
2017-04-15 02:33:00,1628E-3,5C000400,-0724,0839,12089,032.6,045.6,0.212,750.2,01.17,0.508
2017-04-15 02:34:00,1757E-3,5C000400,-0724,0838,12035,032.6,045.6,0.212,750.2,01.17,0.508
2017-04-15 02:35:00,1734E-3,5C000400,-0724,0837,12058,032.6,045.6,0.212,750.2,01.17,0.508
2017-04-15 02:36:00,1736E-3,5C000400,-0724,0838,12011,032.6,045.6,0.211,750.2,01.17,0.508
2017-04-15 02:37:00,1515E-3,5C000400,-0724,0838,12032,032.5,045.6,0.211,750.2,01.17,0.508
2017-04-15 02:38:00,1707E-3,5C000400,-0724,0838,12119,032.4,045.6,0.211,750.2,01.17,0.508
2017-04-15 02:39:00,1607E-3,5C000400,-0724,0837,12204,032.3,045.6,0.211,750.2,01.17,0.508
2017-04-15 02:40:00,1644E-3,5C000400,-0724,0839,12090,032.1,045.6,0.212,750.2,01.17,0.508
2017-04-15 02:41:00,1767E-3,5C000400,-0724,0838,12127,031.9,045.6,0.212,750.3,01.17,0.508
2017-04-15 02:42:00,1575E-3,5C000400,-0724,0838,12137,031.7,045.6,0.212,750.2,01.17,0.508
2017-04-15 02:43:00,1616E-3,5C000400,-0724,0837,12028,031.4,045.5,0.212,750.3,01.17,0.508
2017-04-15 02:44:00,1649E-3,5C000400,-0724,0836,12033,031.2,045.5,0.213,750.3,01.17,0.508
2017-04-15 02:45:00,1500E-3,5C000400,-0724,0836,12003,031.0,045.5,0.213,750.3,01.17,0.508
2017-04-15 02:46:00,1809E-3,5C000400,-0724,0837,12107,030.8,045.6,0.213,750.3,01.17,0.508
2017-04-15 02:47:00,1509E-3,5C000400,-0724,0836,12034,030.7,045.5,0.213,750.3,01.17,0.508
2017-04-15 02:48:00,1697E-3,5C000400,-0724,0837,12059,030.6,045.5,0.214,750.3,01.17,0.508
2017-04-15 02:49:00,1712E-3,5C000400,-0724,0837,12065,030.5,045.5,0.214,750.3,01.17,0.508
2017-04-15 02:50:00,1624E-3,5C000400,-0724,0837,12011,030.4,045.5,0.214,750.4,01.17,0.508
2017-04-15 02:51:00,1666E-3,5C000400,-0724,0837,12061,030.5,045.5,0.215,750.4,01.17,0.508
2017-04-15 02:52:00,1703E-3,5C000400,-0724,0836,11995,030.5,045.6,0.215,750.3,01.17,0.508
2017-04-15 02:53:00,1642E-3,5C000400,-0724,0838,12197,030.6,045.6,0.215,750.3,01.17,0.508
2017-04-15 02:54:00,1718E-3,5C000400,-0724,0837,12160,030.6,045.5,0.215,750.3,01.17,0.508
2017-04-15 02:55:00,1626E-3,5C000400,-0724,0837,11901,030.7,045.5,0.215,750.3,01.17,0.508
2017-04-15 02:56:00,1745E-3,5C000400,-0724,0838,12125,030.8,045.5,0.215,750.3,01.17,0.508
2017-04-15 02:57:00,1642E-3,5C000400,-0724,0838,12145,030.8,045.5,0.215,750.3,01.17,0.508
2017-04-15 02:58:00,1651E-3,5C000400,-0724,0837,11818,030.9,045.5,0.215,750.3,01.17,0.508
2017-04-15 02:59:00,1857E-3,5C000400,-0724,0837,12018,031.0,045.5,0.215,750.3,01.17,0.508
2017-04-15 03:00:00,1627E-3,5C000400,-0724,0838,11927,031.0,045.6,0.215,750.3,01.17,0.508
2017-04-15 03:01:00,1622E-3,5C000400,-0724,0838,12073,031.1,045.6,0.215,750.3,01.17,0.508
2017-04-15 03:02:00,1748E-3,5C000400,-0724,0837,12106,031.1,045.6,0.215,750.3,01.17,0.508
2017-04-15 03:03:00,1641E-3,5C000400,-0724,0837,12006,031.2,045.6,0.215,750.3,01.17,0.508
2017-04-15 03:04:00,1603E-3,5C000400,-0724,0838,12035,031.2,045.5,0.215,750.3,01.17,0.508
2017-04-15 03:05:00,1692E-3,5C000400,-0724,0837,12154,031.3,045.6,0.215,750.4,01.17,0.508
2017-04-15 03:06:00,1624E-3,5C000400,-0724,0837,12154,031.3,045.6,0.215,750.4,01.17,0.508
2017-04-15 03:07:00,1616E-3,5C000400,-0724,0838,12019,031.4,045.6,0.215,750.4,01.17,0.508
2017-04-15 03:08:00,1717E-3,5C000400,-0724,0838,12042,031.4,045.5,0.214,750.3,01.17,0.508
2017-04-15 03:09:00,1707E-3,5C000400,-0724,0838,12006,031.4,045.6,0.215,750.3,01.17,0.508
2017-04-15 03:10:00,1750E-3,5C000400,-0724,0838,11946,031.5,045.6,0.215,750.3,01.17,0.508
2017-04-15 03:11:00,1657E-3,5C000400,-0724,0837,11990,031.5,045.6,0.214,750.4,01.17,0.508
2017-04-15 03:12:00,1609E-3,5C000400,-0724,0837,12070,031.6,045.6,0.214,750.4,01.17,0.508
2017-04-15 03:13:00,1759E-3,5C000400,-0724,0838,12058,031.6,045.6,0.214,750.4,01.17,0.508
2017-04-15 03:14:00,1528E-3,5C000400,-0724,0837,12054,031.6,045.6,0.214,750.4,01.17,0.508
2017-04-15 03:15:00,1585E-3,5C000400,-0724,0838,11963,031.7,045.6,0.214,750.4,01.17,0.508
2017-04-15 03:16:00,1690E-3,5C000400,-0724,0838,12212,031.7,045.6,0.214,750.4,01.17,0.508
2017-04-15 03:17:00,1660E-3,5C000400,-0724,0838,11980,031.8,045.6,0.214,750.4,01.17,0.508
2017-04-15 03:18:00,1630E-3,5C000400,-0724,0837,11966,031.8,045.6,0.214,750.4,01.17,0.508
2017-04-15 03:19:00,1562E-3,5C000400,-0724,0838,12145,031.8,045.6,0.213,750.4,01.17,0.508
2017-04-15 03:20:00,1753E-3,5C000400,-0724,0838,12099,031.9,045.6,0.214,750.4,01.17,0.508
2017-04-15 03:21:00,1747E-3,5C000400,-0724,0837,11927,031.9,045.6,0.214,750.4,01.17,0.508
2017-04-15 03:22:00,1650E-3,5C000400,-0724,0838,12048,031.9,045.6,0.214,750.4,01.17,0.508
2017-04-15 03:23:00,1680E-3,5C000400,-0724,0838,11961,032.0,045.6,0.214,750.4,01.17,0.508
2017-04-15 03:24:00,1682E-3,5C000400,-0724,0838,12069,032.0,045.6,0.214,750.4,01.17,0.508
2017-04-15 03:25:00,1806E-3,5C000400,-0724,0839,12066,032.1,045.6,0.213,750.4,01.17,0.508
2017-04-15 03:26:00,1640E-3,5C000400,-0724,0838,12029,032.1,045.6,0.213,750.4,01.17,0.508
2017-04-15 03:27:00,1608E-3,5C000400,-0724,0838,12149,032.1,045.6,0.213,750.4,01.17,0.508
2017-04-15 03:28:00,1598E-3,5C000400,-0724,0838,12052,032.1,045.6,0.213,750.4,01.17,0.508
2017-04-15 03:29:00,1619E-3,5C000400,-0724,0838,12099,032.1,045.6,0.213,750.4,01.17,0.508
2017-04-15 03:30:00,1707E-3,5C000400,-0724,0839,11996,032.0,045.6,0.213,750.4,01.17,0.508
2017-04-15 03:31:00,1553E-3,5C000400,-0724,0838,11920,032.0,045.6,0.213,750.4,01.17,0.508
2017-04-15 03:32:00,1585E-3,5C000400,-0724,0837,12161,031.8,045.6,0.213,750.4,01.17,0.508
2017-04-15 03:33:00,1841E-3,5C000400,-0724,0838,11968,031.7,045.6,0.213,750.4,01.17,0.508
2017-04-15 03:34:00,1832E-3,5C000400,-0724,0838,11819,031.4,045.5,0.213,750.4,01.17,0.508
2017-04-15 03:35:00,1827E-3,5C000400,-0724,0837,12006,031.2,045.5,0.213,750.5,01.17,0.508
2017-04-15 03:36:00,1737E-3,5C000400,-0724,0837,12090,031.0,045.5,0.213,750.5,01.17,0.508
2017-04-15 03:37:00,1715E-3,5C000400,-0724,0837,12092,030.8,045.5,0.213,750.5,01.17,0.508
2017-04-15 03:38:00,1650E-3,5C000400,-0724,0838,12037,030.6,045.5,0.214,750.5,01.17,0.508
2017-04-15 03:39:00,1648E-3,5C000400,-0724,0837,11988,030.4,045.5,0.214,750.5,01.17,0.508
2017-04-15 03:40:00,1817E-3,5C000400,-0724,0837,11969,030.3,045.5,0.214,750.5,01.17,0.508
2017-04-15 03:41:00,1600E-3,5C000400,-0724,0837,12070,030.2,045.5,0.215,750.6,01.17,0.508
2017-04-15 03:42:00,1660E-3,5C000400,-0724,0837,12134,030.1,045.5,0.215,750.5,01.17,0.508
2017-04-15 03:43:00,1765E-3,5C000400,-0724,0837,12073,030.1,045.5,0.215,750.5,01.17,0.508
2017-04-15 03:44:00,1712E-3,5C000400,-0724,0836,12002,030.0,045.6,0.216,750.5,01.17,0.508
2017-04-15 03:45:00,1687E-3,5C000400,-0724,0837,12040,029.9,045.6,0.216,750.6,01.17,0.508
2017-04-15 03:46:00,1519E-3,5C000400,-0724,0837,12076,030.0,045.5,0.216,750.6,01.17,0.508
2017-04-15 03:47:00,1645E-3,5C000400,-0724,0837,12129,030.0,045.5,0.216,750.6,01.17,0.508
2017-04-15 03:48:00,1755E-3,5C000400,-0724,0837,12035,030.0,045.6,0.216,750.6,01.17,0.508
2017-04-15 03:49:00,1635E-3,5C000400,-0724,0836,12190,030.1,045.5,0.216,750.6,01.17,0.508
2017-04-15 03:50:00,1766E-3,5C000400,-0724,0837,12084,030.1,045.5,0.216,750.6,01.17,0.508
2017-04-15 03:51:00,1601E-3,5C000400,-0724,0837,11974,030.0,045.5,0.216,750.6,01.17,0.508
2017-04-15 03:52:00,1656E-3,5C000400,-0724,0837,11985,030.0,045.5,0.217,750.6,01.17,0.508
2017-04-15 03:53:00,1597E-3,5C000400,-0724,0837,12047,029.9,045.5,0.217,750.6,01.17,0.508
2017-04-15 03:54:00,1765E-3,5C000400,-0724,0837,12025,029.9,045.5,0.216,750.7,01.17,0.508
2017-04-15 03:55:00,1688E-3,5C000400,-0724,0836,12027,029.7,045.5,0.217,750.7,01.17,0.508
2017-04-15 03:56:00,1557E-3,5C000400,-0724,0838,12065,029.7,045.5,0.217,750.7,01.17,0.508
2017-04-15 03:57:00,1623E-3,5C000400,-0724,0838,12090,029.6,045.5,0.217,750.7,01.17,0.508
2017-04-15 03:58:00,1655E-3,5C000400,-0724,0837,12109,029.6,045.5,0.217,750.7,01.17,0.508
2017-04-15 03:59:00,1615E-3,5C000400,-0724,0836,12042,029.6,045.5,0.217,750.7,01.17,0.508
2017-04-15 04:00:00,1674E-3,5C000400,-0724,0837,11947,029.5,045.5,0.217,750.7,01.17,0.508
2017-04-15 04:01:00,1669E-3,5C000400,-0724,0836,12093,029.6,045.5,0.218,750.7,01.17,0.508
2017-04-15 04:02:00,1671E-3,5C000400,-0724,0838,12129,029.6,045.5,0.218,750.7,01.17,0.508
2017-04-15 04:03:00,1796E-3,5C000400,-0724,0836,12163,029.6,045.5,0.217,750.8,01.17,0.508
2017-04-15 04:04:00,1540E-3,5C000400,-0724,0837,11933,029.6,045.5,0.218,750.8,01.17,0.508
2017-04-15 04:05:00,1780E-3,5C000400,-0724,0838,11822,029.7,045.5,0.218,750.8,01.17,0.508
2017-04-15 04:06:00,1647E-3,5C000400,-0724,0838,11948,029.7,045.5,0.218,750.8,01.17,0.508
2017-04-15 04:07:00,1657E-3,5C000400,-0724,0837,11861,029.8,045.5,0.217,750.8,01.17,0.508
2017-04-15 04:08:00,1746E-3,5C000400,-0724,0837,11988,029.8,045.5,0.218,750.8,01.17,0.508
2017-04-15 04:09:00,1697E-3,5C000400,-0724,0837,12109,029.7,045.5,0.218,750.8,01.17,0.508
2017-04-15 04:10:00,1682E-3,5C000400,-0724,0837,11927,029.7,045.5,0.218,750.8,01.17,0.508
2017-04-15 04:11:00,1691E-3,5C000400,-0724,0837,12034,029.6,045.5,0.217,750.8,01.17,0.508
2017-04-15 04:12:00,1675E-3,5C000400,-0724,0836,11872,029.5,045.5,0.217,750.8,01.17,0.508
2017-04-15 04:13:00,1748E-3,5C000400,-0724,0837,12062,029.5,045.5,0.218,750.8,01.17,0.508
2017-04-15 04:14:00,1685E-3,5C000400,-0724,0836,11837,029.4,045.5,0.218,750.8,01.17,0.508
2017-04-15 04:15:00,1664E-3,5C000400,-0724,0837,12073,029.4,045.5,0.218,750.8,01.17,0.508
2017-04-15 04:16:00,1600E-3,5C000400,-0724,0837,12020,029.4,045.5,0.218,750.8,01.17,0.508
2017-04-15 04:17:00,1703E-3,5C000400,-0724,0837,12035,029.3,045.5,0.217,750.9,01.17,0.508
2017-04-15 04:18:00,1675E-3,5C000400,-0724,0837,12003,029.3,045.5,0.218,750.8,01.17,0.508
2017-04-15 04:19:00,1630E-3,5C000400,-0724,0837,12103,029.3,045.5,0.218,750.9,01.17,0.508
2017-04-15 04:20:00,1696E-3,5C000400,-0724,0836,12058,029.2,045.5,0.218,750.9,01.17,0.508